Theta_e
300 301 301 300 301 301 301 300 300 300 300 300 300 300 300 300 300 294 290 293 290 284 286 287 288 283 282 281 277 280 278 279 276 268 273 274 273 274 273 275 274 273 271 271 272 269 266 282 281 277 282 286 289 289
300 301 300 300 300 301 301 301 301 300 300 300 300 299 299 299 299 297 287 293 293 286 284 289 289 290 288 287 283 282 280 279 280 275 275 274 271 273 273 269 277 271 275 270 273 272 280 283 282 281 283 281 284 288
300 300 300 300 300 300 301 301 300 300 300 300 299 299 299 299 299 297 291 290 289 285 283 282 281 287 291 289 288 278 278 280 278 280 277 275 271 274 269 270 272 275 278 273 273 276 278 281 283 284 284 283 285 287
300 300 300 300 300 300 301 300 300 300 300 299 299 298 297 297 297 296 287 289 285 285 277 277 290 286 289 287 285 284 284 283 281 278 273 272 270 277 271 273 272 275 276 273 273 276 278 280 281 282 283 284 284 285
300 300 300 300 300 300 300 300 300 300 300 299 298 297 296 296 295 292 289 289 290 284 275 278 284 285 285 285 284 284 281 278 272 268 265 270 275 274 275 275 272 276 274 272 271 276 276 276 280 283 282 282 283 283
300 300 300 300 300 300 300 300 300 300 300 299 297 296 295 294 294 286 277 289 288 287 277 268 279 280 284 284 283 279 279 279 274 268 267 272 278 274 270 263 274 277 279 278 276 280 279 279 280 282 281 282 283 283
299 300 300 300 300 300 300 300 300 300 299 298 296 295 294 294 287 280 278 284 290 284 271 267 269 278 282 281 279 278 278 276 273 267 265 269 273 273 268 267 275 278 279 280 281 280 276 279 277 281 282 283 284 283
299 299 299 300 300 300 299 299 299 299 298 297 295 294 293 293 290 282 286 289 287 279 274 263 269 273 280 275 273 277 273 272 270 269 272 270 272 271 259 274 277 278 280 280 280 281 280 280 281 281 282 283 282 282
299 299 299 299 299 299 299 299 298 298 295 293 292 292 288 285 281 285 291 290 284 277 266 268 264 263 279 277 275 273 274 263 274 266 273 270 269 265 274 276 276 279 278 277 280 281 281 280 279 280 280 280 280 280
299 299 299 299 299 299 299 297 296 294 292 290 288 281 275 281 289 288 282 276 275 275 273 269 274 269 275 273 269 268 270 264 260 269 273 267 268 275 277 278 279 278 278 278 275 275 277 276 277 278 279 281 281 281
299 299 299 299 299 299 298 296 295 293 290 286 280 277 286 291 282 278 269 268 270 266 273 273 274 270 276 268 267 269 264 266 259 266 264 264 269 274 278 277 279 280 281 279 279 278 278 279 278 278 278 280 280 281
299 299 299 298 298 297 297 296 294 289 287 286 284 285 283 277 272 267 266 272 272 269 274 272 273 273 272 274 267 268 264 266 261 271 263 261 273 276 277 278 279 280 280 279 280 280 280 281 280 280 280 280 280 281
299 299 298 296 296 297 296 293 292 291 290 286 281 274 272 275 263 263 259 266 265 275 275 274 270 272 274 275 267 267 261 260 271 261 263 269 275 277 277 278 278 279 279 279 279 280 280 280 281 281 280 281 281 281
299 298 296 295 295 295 293 291 291 288 285 276 274 267 268 265 269 271 270 270 274 274 273 273 271 271 272 269 271 265 269 269 259 258 266 272 275 277 278 279 279 278 279 278 278 279 279 279 279 281 281 281 280 280
298 296 295 295 294 292 292 291 290 287 280 273 275 266 270 275 276 276 276 275 276 276 274 272 271 271 269 265 271 268 260 258 265 265 269 274 276 277 278 278 278 278 278 278 279 278 278 278 278 278 280 281 281 282
296 295 292 294 293 292 291 290 286 283 278 274 275 273 275 274 272 275 275 274 277 276 275 273 268 264 262 268 263 264 266 265 268 271 274 277 277 278 278 278 278 279 279 278 278 278 279 278 278 278 280 280 280 281
295 288 294 294 292 290 290 285 280 274 273 272 272 276 275 275 274 275 275 275 278 275 267 269 264 266 269 265 268 271 267 270 273 275 276 278 277 278 278 278 279 279 278 278 278 278 278 279 279 279 277 279 280 281
287 291 294 292 290 287 286 283 277 273 271 274 272 274 277 277 276 277 277 277 277 274 273 269 271 266 266 267 267 271 274 274 276 277 277 278 279 278 279 278 279 279 278 278 278 278 278 278 277 277 279 279 280 280
290 291 293 292 288 284 279 277 278 270 273 276 277 277 277 277 278 278 277 277 278 278 274 272 268 267 270 272 272 273 275 275 275 277 277 278 278 278 279 279 278 278 277 277 277 277 278 278 278 278 279 280 279 280
292 292 292 290 288 281 275 275 280 273 272 275 277 276 277 276 278 277 277 277 276 275 270 269 271 273 273 275 277 277 277 278 277 275 276 277 278 278 278 277 277 277 276 277 277 277 277 277 279 279 279 279 278 279
289 288 290 288 284 281 278 277 276 276 276 275 277 276 274 276 275 275 275 277 273 271 273 275 275 277 279 280 280 278 279 278 275 274 275 275 277 277 277 277 276 276 275 275 275 275 276 276 277 279 279 279 280 280
285 288 284 284 280 278 276 279 277 279 276 276 275 276 273 270 272 274 277 273 274 275 275 276 277 278 277 277 278 278 278 278 277 277 276 276 275 275 275 275 274 274 274 274 274 275 275 277 278 279 279 279 280 280
287 285 282 281 275 273 273 279 274 275 268 272 274 272 272 271 275 277 271 274 275 277 277 277 278 279 277 278 278 278 279 277 275 276 276 276 276 275 274 274 274 273 272 274 275 275 276 278 279 278 279 279 279 279
287 280 276 274 274 268 276 272 276 275 274 270 269 267 271 271 275 270 269 271 274 277 277 277 277 277 277 277 276 277 277 275 275 276 276 275 273 273 274 273 273 274 274 275 276 276 278 277 278 278 279 280 280 279
273 273 274 268 275 271 270 270 270 270 264 269 266 266 269 273 265 265 268 271 273 273 276 278 277 277 275 275 276 276 278 276 274 273 275 274 273 272 271 272 273 274 276 275 276 276 276 277 280 278 277 276 276 275
268 272 270 270 271 270 270 265 265 265 266 264 266 270 272 266 262 262 267 271 273 273 273 273 273 273 274 275 273 274 275 276 273 272 273 274 272 271 270 270 270 273 278 277 276 275 275 278 277 275 274 274 273 272
266 269 275 277 276 275 272 273 274 270 267 264 266 266 265 260 260 266 273 277 275 277 278 277 276 273 273 274 276 276 276 275 272 272 274 273 273 273 272 271 273 274 276 276 276 277 278 276 274 273 272 272 271 270
273 274 269 273 272 274 266 268 269 266 266 272 270 264 265 263 263 271 273 277 277 278 277 277 277 276 274 273 274 273 273 273 272 272 272 271 272 272 274 275 275 276 276 277 278 277 276 274 272 271 270 269 269 270
271 275 274 267 269 271 269 269 268 272 275 271 268 268 269 274 275 275 277 277 277 276 273 272 272 273 272 272 270 268 268 269 267 265 263 264 266 269 273 273 274 275 276 280 278 276 276 274 273 271 271 269 269 269
270 276 271 267 267 268 270 274 272 275 276 275 274 274 274 274 276 279 276 274 272 270 269 269 269 268 265 264 265 265 265 265 264 267 265 265 266 270 271 272 273 275 279 277 276 275 274 272 271 270 269 268 267 267
276 274 270 271 269 273 275 276 275 275 273 272 272 272 273 272 274 276 274 273 271 270 270 267 266 265 264 264 264 265 265 264 265 267 268 269 269 271 272 274 276 279 278 277 274 271 269 269 268 266 265 265 264 264
274 270 268 265 268 273 275 274 272 270 270 270 270 270 270 268 267 270 275 272 270 267 265 264 265 266 264 265 266 266 265 267 268 269 269 270 271 273 274 275 278 277 275 273 271 270 269 267 266 265 264 263 263 262
271 271 271 268 267 267 270 269 268 266 267 267 267 268 269 267 264 271 276 273 268 264 263 264 264 264 266 265 266 266 267 269 269 271 272 273 274 274 276 278 277 274 273 271 270 268 267 266 265 264 263 262 262 261
Wind_Speed
13 13 12 12 13 13 14 14 14 13 12 12 12 12 12 13 12 4 4 5 3 3 10 9 8 8 14 9 11 10 7 4 4 2 5 5 4 7 6 6 4 3 3 3 5 5 8 22 14 9 9 10 3 6
13 12 12 12 12 13 14 13 12 11 11 11 10 11 12 13 12 6 3 3 4 3 10 15 16 14 12 11 6 2 6 6 3 3 4 5 9 4 10 8 8 7 3 3 4 6 12 9 13 9 8 12 18 6
12 13 13 12 13 13 12 12 11 11 11 11 10 11 12 14 12 8 3 3 4 4 5 4 6 8 3 3 6 8 4 2 4 4 4 2 6 4 3 5 8 7 8 5 7 1 13 8 12 10 13 11 14 8
13 13 13 13 14 13 12 12 12 12 11 11 9 9 10 9 8 8 2 4 1 3 5 6 3 10 16 6 8 6 3 3 3 1 2 3 4 4 4 7 8 7 8 10 13 11 8 7 11 10 9 12 9 11
14 14 13 13 14 13 13 12 12 12 13 11 8 8 8 8 9 6 5 3 3 1 5 7 11 11 13 8 4 7 4 2 1 3 1 2 4 6 3 5 5 6 8 7 8 5 7 8 11 13 7 11 13 13
14 13 13 13 14 13 13 13 12 12 12 11 6 6 8 8 8 3 3 1 4 1 3 5 5 10 10 1 5 6 4 3 1 4 4 4 4 1 5 3 6 6 7 7 8 8 11 12 9 9 7 11 12 11
14 13 13 14 14 13 12 12 12 12 12 7 7 8 9 9 1 1 5 5 8 2 3 5 5 4 5 5 4 2 3 4 4 3 1 3 6 1 3 5 11 12 9 8 10 11 7 5 6 7 6 10 13 11
13 12 13 14 12 12 12 11 11 12 10 9 6 9 11 11 11 4 1 2 4 3 3 1 5 4 4 3 3 3 3 2 4 4 2 2 3 2 2 6 6 9 9 6 6 9 12 7 8 8 9 8 11 11
13 13 13 12 12 11 11 11 11 10 5 2 5 12 5 3 1 1 7 8 2 4 2 2 1 5 2 3 3 4 1 3 4 0 2 4 3 2 6 9 1 4 3 6 2 4 4 9 5 5 6 9 5 8
15 14 14 13 10 9 9 4 4 7 6 1 2 2 2 1 5 7 1 2 2 1 1 3 2 4 1 2 4 3 1 3 2 5 2 2 3 4 6 3 5 7 5 6 6 6 5 7 7 6 7 8 8 6
16 15 14 10 10 10 8 9 11 8 3 2 1 2 1 6 2 0 2 2 2 2 4 5 5 3 3 1 3 2 3 3 2 6 3 3 1 3 6 7 9 9 9 8 7 7 7 7 7 8 8 7 7 9
17 15 12 9 8 10 10 12 12 4 3 2 1 1 2 2 2 3 3 3 3 5 2 1 3 3 3 1 4 4 2 2 5 3 4 3 2 6 4 7 7 7 8 11 13 14 14 15 13 12 12 13 11 10
16 14 10 7 8 13 14 16 13 4 4 0 0 1 2 1 1 5 4 4 3 2 2 2 3 1 4 2 1 0 1 5 2 4 3 3 1 7 7 5 6 7 8 11 14 14 16 18 18 16 15 14 14 14
15 11 9 9 12 16 17 14 11 5 2 2 3 4 4 4 5 5 4 3 4 2 1 1 1 2 4 1 3 1 6 2 3 2 5 4 10 11 11 11 14 17 17 17 16 19 22 20 19 19 18 18 18 19
14 13 15 16 18 16 16 15 11 2 2 2 3 6 6 5 4 4 3 1 2 0 2 3 2 2 3 1 3 3 5 4 5 3 3 8 12 11 12 15 15 14 15 17 16 18 19 19 19 19 17 16 17 18
14 13 9 20 18 17 16 12 3 1 1 2 5 4 4 4 3 2 1 2 2 1 2 1 1 2 4 3 1 5 4 6 6 3 6 10 13 13 14 14 15 15 17 16 18 18 18 17 16 18 17 15 15 16
16 3 19 21 19 18 17 4 2 3 4 5 5 4 7 6 5 5 3 3 1 3 3 1 2 7 3 2 5 4 3 6 7 7 8 13 12 14 13 15 16 15 15 19 18 17 17 16 16 15 16 15 14 14
3 10 25 24 16 11 2 1 3 4 7 6 4 4 5 4 6 5 5 3 3 3 2 5 3 3 4 7 7 8 8 5 7 10 9 12 10 11 12 16 16 15 17 18 17 16 16 15 14 11 14 14 13 11
11 15 27 27 12 4 4 3 2 4 7 4 7 6 6 5 5 5 4 4 4 4 4 2 4 3 6 5 6 7 7 8 11 10 7 9 9 12 13 15 16 15 16 17 16 12 12 14 11 10 10 9 8 8
25 26 27 25 11 3 3 2 2 4 4 4 4 7 6 5 5 4 4 3 2 2 1 3 6 9 9 9 7 9 9 9 9 8 9 8 8 11 13 14 12 16 14 15 13 15 11 11 9 9 9 9 10 9
13 13 23 10 2 1 1 2 4 4 4 3 3 3 4 3 2 2 2 3 1 4 6 6 7 7 6 7 8 5 9 6 4 4 8 10 10 10 12 11 13 12 12 12 12 13 13 11 11 11 10 10 9 9
5 18 3 3 2 4 3 4 3 2 3 4 4 5 3 3 3 4 4 3 4 5 4 3 3 4 4 6 6 6 5 6 6 6 8 10 10 11 11 12 13 11 12 12 11 12 13 12 12 11 11 11 11 10
15 6 3 4 4 3 5 4 3 4 3 4 1 2 3 3 4 2 2 2 3 3 2 3 5 5 4 5 7 7 6 6 5 7 9 8 9 10 12 11 11 13 13 13 12 12 13 17 14 13 13 13 10 9
9 4 5 6 6 4 4 4 4 4 3 3 2 4 5 3 2 1 6 4 4 3 1 3 3 4 4 7 5 5 4 2 5 7 7 9 10 11 10 11 11 11 11 12 12 12 13 14 17 12 10 12 10 5
6 6 5 6 5 5 4 4 5 3 4 4 2 3 4 2 1 3 8 7 5 2 2 2 3 3 4 5 5 4 5 3 5 7 8 9 9 11 12 10 10 11 11 11 10 14 15 15 8 8 9 10 11 13
6 6 9 7 4 5 5 5 6 7 3 4 5 3 1 1 1 6 4 2 2 2 2 2 3 3 3 2 3 3 3 3 4 7 9 8 9 10 12 13 13 12 7 10 12 14 16 12 8 10 11 13 13 11
6 6 5 5 4 6 3 4 4 2 4 4 3 2 2 3 5 6 1 2 1 2 2 3 3 2 2 2 3 3 3 3 3 7 8 8 9 8 9 11 12 11 12 14 13 13 10 9 10 10 10 10 11 11
5 5 8 7 7 6 4 3 3 4 5 4 2 5 5 7 6 2 2 2 1 1 2 3 0 3 2 2 2 3 5 6 7 7 7 7 5 5 6 7 10 19 13 11 7 7 8 8 9 10 11 10 10 11
4 4 4 5 5 3 4 5 5 4 3 1 3 4 5 4 2 1 3 2 1 0 1 2 3 2 2 2 2 2 2 5 10 15 14 11 10 7 8 10 11 11 10 5 9 9 12 11 10 9 12 11 11 12
4 5 3 4 6 6 5 4 3 3 2 3 3 2 3 3 4 3 1 1 1 1 1 0 1 3 2 2 4 4 3 2 2 6 9 10 9 10 11 11 11 12 6 6 6 9 13 11 12 11 12 11 11 12
3 6 4 5 5 6 5 3 1 1 2 3 3 4 7 4 3 2 3 3 3 3 4 3 3 3 2 3 5 9 10 3 5 8 9 9 9 10 11 10 10 4 4 6 9 9 10 10 11 13 15 16 15 13
4 4 3 3 4 3 1 4 4 4 3 3 4 3 3 1 4 1 2 3 4 4 4 2 3 4 3 4 5 5 9 10 10 10 12 9 8 10 10 10 1 5 9 10 10 9 11 12 12 13 13 15 14 15
2 2 2 0 0 2 2 1 2 3 2 3 4 4 3 4 2 2 4 6 5 3 2 2 3 3 6 9 9 9 10 10 15 18 20 18 17 13 9 2 7 10 12 11 11 11 14 16 14 15 15 15 14 14
Wind_Direction
288 293 298 299 298 302 304 306 310 309 311 315 318 324 324 323 323 339 272 280 272 264 292 264 295 297 305 297 288 308 317 22 312 334 287 348 308 293 254 247 247 339 355 313 337 224 239 1 345 357 314 313 122 90
278 286 288 288 291 298 302 300 304 304 308 313 315 320 321 322 319 310 265 306 290 209 271 290 277 268 259 264 307 346 288 328 321 303 328 311 308 284 296 295 299 271 215 205 167 283 311 348 12 38 2 2 354 326
274 280 283 285 289 291 291 297 300 298 307 313 312 318 324 322 316 309 289 296 300 262 276 271 270 281 5 307 255 281 266 293 312 250 294 320 293 308 290 308 324 330 352 336 334 311 315 336 9 20 359 351 328 338
271 275 278 281 284 285 287 290 297 295 298 301 300 318 324 335 340 335 281 284 278 278 279 283 291 344 312 321 316 257 225 247 233 205 215 255 271 298 300 306 293 270 304 309 295 298 332 1 343 346 339 324 325 318
268 273 272 276 281 282 282 286 292 294 294 291 292 311 319 322 322 317 275 304 45 356 294 306 307 302 315 315 334 346 328 342 23 10 351 271 277 314 261 253 264 248 261 267 285 315 275 304 308 306 312 306 306 306
267 270 270 275 279 277 278 281 284 285 288 288 269 283 302 313 327 320 356 268 42 354 341 332 321 289 310 33 291 43 358 303 151 153 235 245 223 272 303 253 236 257 273 287 280 259 252 260 266 294 275 285 283 289
265 263 268 273 277 275 276 279 280 284 293 256 253 273 285 295 313 168 218 311 317 59 53 322 314 283 22 333 331 18 328 266 167 238 271 230 273 208 213 261 289 302 303 336 4 359 320 299 287 290 294 298 280 279
258 260 263 274 272 275 275 282 282 287 283 246 258 282 288 292 286 273 251 11 357 87 84 275 268 322 10 354 316 277 285 284 299 215 318 232 301 175 326 315 353 26 340 358 328 346 305 305 9 4 359 347 350 348
250 251 260 261 267 268 279 284 284 292 117 97 300 290 293 210 242 78 218 234 203 135 202 257 209 278 62 260 262 324 248 345 265 207 251 85 294 247 228 248 25 273 264 272 328 325 335 296 326 342 335 326 332 320
245 252 253 253 259 269 276 297 136 131 112 273 307 29 275 245 279 295 309 42 71 277 77 244 235 275 161 351 302 360 331 260 352 260 344 111 318 335 28 34 202 269 298 323 333 320 310 310 309 298 290 287 275 259
246 251 248 242 256 259 237 186 162 150 170 79 201 237 344 264 2 311 273 133 228 262 206 233 208 244 349 44 241 188 255 278 360 268 94 284 172 346 351 3 349 344 332 331 322 308 298 284 296 298 287 272 281 300
247 256 233 233 248 258 254 193 149 158 166 179 213 310 23 16 355 64 244 250 222 230 193 194 266 216 275 102 76 296 200 13 257 303 64 295 92 251 291 297 306 320 325 335 330 321 314 306 299 284 280 281 277 268
241 245 210 224 261 268 146 141 161 153 154 145 2 303 101 213 351 180 222 266 260 55 274 273 327 266 350 61 315 37 324 236 309 16 242 226 132 326 328 336 317 314 306 300 297 295 297 294 290 285 283 281 276 276
245 188 187 169 144 147 145 148 161 139 95 159 189 264 187 213 228 210 216 217 239 88 16 57 279 181 224 1 210 198 247 17 325 257 268 335 335 334 328 323 323 314 311 307 309 309 302 295 290 284 280 279 276 271
184 179 174 161 151 152 161 166 152 91 132 218 182 235 231 225 248 225 231 27 306 330 70 348 298 204 264 148 222 237 354 259 228 269 310 320 317 315 317 309 306 307 308 309 304 297 293 291 291 288 282 275 275 272
171 182 173 165 167 166 161 147 103 84 219 226 243 246 264 288 278 288 297 273 259 190 26 63 249 350 265 201 132 237 250 263 306 286 306 310 310 309 308 309 311 315 313 309 304 300 296 290 289 289 286 280 276 267
171 154 162 164 162 156 150 95 142 192 213 224 240 225 265 284 267 267 246 243 232 109 195 156 139 230 293 264 231 233 238 303 295 303 303 302 301 303 305 315 315 320 306 308 306 300 296 298 294 290 288 287 280 273
129 155 157 155 149 150 60 118 177 208 235 234 242 233 241 241 252 251 244 237 157 196 139 210 183 185 232 265 272 280 281 281 301 299 296 295 298 309 321 317 320 315 311 310 310 310 306 306 305 299 295 292 290 284
152 152 156 155 148 134 151 190 182 248 230 242 245 248 247 240 231 230 227 245 213 189 136 126 247 222 234 253 277 293 291 299 297 290 292 302 310 319 323 319 319 320 317 313 311 306 303 298 296 300 300 296 287 281
146 150 155 158 151 127 147 210 177 247 260 244 247 246 244 234 236 229 234 237 208 200 207 200 234 250 253 260 267 281 280 282 292 307 309 316 320 325 321 324 321 322 316 315 310 308 310 305 304 303 297 295 295 293
113 155 159 143 87 47 238 207 208 224 237 240 265 253 248 261 244 232 244 235 201 212 257 254 256 258 263 276 275 275 290 286 294 289 317 321 327 324 323 323 324 318 317 314 313 315 316 307 300 295 290 287 283 281
107 136 102 145 146 175 235 224 232 240 214 240 275 260 256 265 262 254 239 237 237 245 229 236 262 276 276 273 269 285 297 308 327 325 325 322 329 329 324 324 322 320 315 313 312 307 302 300 298 294 294 291 282 275
121 125 127 151 183 216 248 183 223 205 233 252 218 229 242 223 228 240 246 220 250 243 231 238 267 288 303 325 328 320 321 323 332 321 323 332 327 319 315 318 323 315 311 307 305 301 299 299 302 303 298 293 282 277
116 130 160 176 187 222 201 216 218 227 224 209 209 244 267 266 254 233 259 250 242 240 271 307 4 359 319 314 304 291 294 339 322 324 334 329 319 315 322 316 310 303 300 300 304 303 309 311 312 309 317 347 1 352
125 184 180 200 199 198 210 212 196 231 228 228 225 268 271 350 271 256 261 264 263 260 66 8 298 283 275 282 286 307 343 7 342 324 324 322 321 315 311 308 302 301 304 301 321 319 318 322 344 16 12 16 24 32
190 188 183 192 201 188 199 186 194 209 200 203 235 232 137 174 226 260 238 215 117 146 226 224 238 259 283 271 303 330 340 0 341 314 320 327 317 308 305 309 311 313 334 327 318 318 314 329 9 27 27 24 34 41
194 200 187 214 210 190 201 227 220 208 178 223 215 182 153 213 242 245 33 77 103 239 222 238 232 223 252 311 335 349 354 346 314 305 310 308 303 292 286 298 312 317 320 315 310 310 334 24 31 33 41 38 35 40
205 207 197 200 208 225 206 184 186 223 219 212 163 172 203 205 227 258 184 250 208 305 285 268 12 82 57 324 10 355 330 322 309 312 308 296 288 286 297 322 313 308 309 310 315 13 39 43 46 46 49 51 50 47
201 196 200 184 191 213 215 199 209 213 209 173 226 259 268 278 265 266 273 246 220 10 296 45 332 10 352 22 0 334 314 329 328 323 317 316 320 319 328 318 311 310 321 315 70 66 57 59 59 56 57 60 61 59
210 204 199 173 166 208 218 201 204 213 185 185 190 248 265 260 241 231 163 113 104 144 157 78 337 44 304 318 309 312 296 273 260 290 301 305 306 307 307 306 306 310 323 60 66 64 63 61 63 61 61 61 60 63
185 184 211 224 236 237 227 243 325 95 197 210 211 236 260 263 278 239 127 120 106 61 42 18 349 331 346 327 317 314 309 291 269 280 280 282 285 286 289 294 305 336 51 68 73 77 79 76 74 72 67 65 61 64
181 191 180 227 248 257 204 197 209 205 227 222 246 227 265 217 242 134 29 81 67 55 31 3 327 312 302 274 286 283 269 286 290 288 286 276 275 275 285 296 296 74 83 87 87 86 82 82 81 77 73 69 66 64
176 129 86 29 238 221 247 123 259 268 239 224 238 213 207 149 181 140 89 67 89 97 25 299 283 288 303 292 286 288 285 282 279 277 274 271 266 265 269 110 92 97 98 95 90 90 86 88 86 83 78 73 69 65